Time,TemperatureF,DewpointF,PressureIn,WindDirection,WindDirectionDegrees,WindSpeedMPH,WindSpeedGustMPH,Humidity,HourlyPrecipIn,Conditions,Clouds,dailyrainin,SoftwareType,DateUTC
2013-08-27 00:01:00,80.0,69.3,29.25,NNW,333,0.0,0.0,70,0.00,,---,0.00,VWS V12.08,2013-08-27 05:01:00,
2013-08-27 00:06:00,79.9,69.2,29.25,NW,319,0.0,1.0,70,0.00,,---,0.00,VWS V12.08,2013-08-27 05:06:00,
2013-08-27 00:11:00,79.8,69.2,29.25,NNW,340,0.0,1.0,70,0.00,,---,0.00,VWS V12.08,2013-08-27 05:11:00,
2013-08-27 00:16:00,79.8,69.6,29.25,West,279,0.0,1.0,71,0.00,,---,0.00,VWS V12.08,2013-08-27 05:16:00,
2013-08-27 00:21:00,79.8,69.6,29.25,NNW,332,0.0,1.0,71,0.00,,---,0.00,VWS V12.08,2013-08-27 05:21:00,
2013-08-27 00:26:00,79.8,69.6,29.24,NNW,328,0.0,1.0,71,0.00,,---,0.00,VWS V12.08,2013-08-27 05:26:00,
2013-08-27 00:31:00,79.7,69.5,29.25,NW,313,0.0,0.0,71,0.00,,---,0.00,VWS V12.08,2013-08-27 05:31:00,
2013-08-27 00:36:00,79.6,69.4,29.25,NNW,341,0.0,1.0,71,0.00,,---,0.00,VWS V12.08,2013-08-27 05:36:00,
2013-08-27 00:41:00,79.6,69.4,29.24,West,276,0.0,1.0,71,0.00,,---,0.00,VWS V12.08,2013-08-27 05:41:00,
2013-08-27 00:46:00,79.6,69.8,29.24,NNW,346,0.0,1.0,72,0.00,,---,0.00,VWS V12.08,2013-08-27 05:46:00,
2013-08-27 00:51:00,79.5,69.7,29.24,NNW,341,0.0,1.0,72,0.00,,---,0.00,VWS V12.08,2013-08-27 05:51:00,
2013-08-27 00:56:00,79.5,69.7,29.24,WNW,298,0.0,1.0,72,0.00,,---,0.00,VWS V12.08,2013-08-27 05:56:00,
2013-08-27 01:01:00,79.6,69.8,29.24,NW,317,0.0,0.0,72,0.00,,---,0.00,VWS V12.08,2013-08-27 06:01:00,
2013-08-27 01:06:00,79.5,69.7,29.24,NNW,340,0.0,1.0,72,0.00,,---,0.00,VWS V12.08,2013-08-27 06:06:00,
2013-08-27 01:11:00,79.5,69.7,29.24,NNW,343,0.0,1.0,72,0.00,,---,0.00,VWS V12.08,2013-08-27 06:11:00,
2013-08-27 01:16:00,79.5,69.7,29.24,North,355,0.0,1.0,72,0.00,,---,0.00,VWS V12.08,2013-08-27 06:16:00,
2013-08-27 01:21:00,79.5,69.7,29.24,North,359,0.0,1.0,72,0.00,,---,0.00,VWS V12.08,2013-08-27 06:21:00,
2013-08-27 01:26:00,79.4,69.6,29.24,NNW,335,0.0,1.0,72,0.00,,---,0.00,VWS V12.08,2013-08-27 06:26:00,
2013-08-27 01:31:00,79.3,69.5,29.24,NW,312,0.0,0.0,72,0.00,,---,0.00,VWS V12.08,2013-08-27 06:31:00,
2013-08-27 01:36:00,79.2,69.4,29.24,NW,322,0.0,1.0,72,0.00,,---,0.00,VWS V12.08,2013-08-27 06:36:00,
2013-08-27 01:41:00,79.2,69.4,29.24,North,356,0.0,1.0,72,0.00,,---,0.00,VWS V12.08,2013-08-27 06:41:00,
2013-08-27 01:46:00,79.1,69.7,29.24,West,281,0.0,1.0,73,0.00,,---,0.00,VWS V12.08,2013-08-27 06:46:00,
2013-08-27 01:51:00,79.1,69.3,29.24,North,0,0.0,1.0,72,0.00,,---,0.00,VWS V12.08,2013-08-27 06:51:00,
2013-08-27 01:56:00,79.1,69.7,29.24,WNW,288,0.0,1.0,73,0.00,,---,0.00,VWS V12.08,2013-08-27 06:56:00,
2013-08-27 02:01:00,79.1,69.7,29.24,West,271,0.0,1.0,73,0.00,,---,0.00,VWS V12.08,2013-08-27 07:01:00,
2013-08-27 02:06:00,79.0,69.6,29.24,NNW,335,0.0,1.0,73,0.00,,---,0.00,VWS V12.08,2013-08-27 07:06:00,
2013-08-27 02:11:00,79.0,69.6,29.24,NW,318,0.0,1.0,73,0.00,,---,0.00,VWS V12.08,2013-08-27 07:11:00,
2013-08-27 02:16:00,78.9,69.5,29.24,West,279,0.0,2.0,73,0.00,,---,0.00,VWS V12.08,2013-08-27 07:16:00,
2013-08-27 02:21:00,78.8,69.4,29.24,North,0,0.0,2.0,73,0.00,,---,0.00,VWS V12.08,2013-08-27 07:21:00,
2013-08-27 02:26:00,78.8,69.4,29.24,NNW,348,0.0,2.0,73,0.00,,---,0.00,VWS V12.08,2013-08-27 07:26:00,
2013-08-27 02:31:00,78.8,69.8,29.24,NNW,342,0.0,1.0,74,0.00,,---,0.00,VWS V12.08,2013-08-27 07:31:00,
2013-08-27 02:36:00,78.7,69.7,29.24,WNW,286,0.0,1.0,74,0.00,,---,0.00,VWS V12.08,2013-08-27 07:36:00,
2013-08-27 02:41:00,78.6,69.6,29.24,West,266,0.0,1.0,74,0.00,,---,0.00,VWS V12.08,2013-08-27 07:41:00,
2013-08-27 02:46:00,78.5,69.5,29.23,NW,315,0.0,2.0,74,0.00,,---,0.00,VWS V12.08,2013-08-27 07:46:00,
2013-08-27 02:51:00,78.5,69.5,29.23,North,359,0.0,2.0,74,0.00,,---,0.00,VWS V12.08,2013-08-27 07:51:00,
2013-08-27 02:56:00,78.4,69.4,29.23,West,277,0.0,2.0,74,0.00,,---,0.00,VWS V12.08,2013-08-27 07:56:00,
2013-08-27 03:01:00,78.4,69.4,29.23,NNW,345,0.0,1.0,74,0.00,,---,0.00,VWS V12.08,2013-08-27 08:01:00,
2013-08-27 03:06:00,78.3,69.3,29.23,NNW,344,0.0,1.0,74,0.00,,---,0.00,VWS V12.08,2013-08-27 08:06:00,
2013-08-27 03:11:00,78.3,69.3,29.23,NW,323,0.0,1.0,74,0.00,,---,0.00,VWS V12.08,2013-08-27 08:11:00,
2013-08-27 03:16:00,78.2,69.2,29.23,West,261,0.0,1.0,74,0.00,,---,0.00,VWS V12.08,2013-08-27 08:16:00,
2013-08-27 03:22:00,78.2,69.6,29.23,NW,306,0.0,1.0,75,0.00,,---,0.00,VWS V12.08,2013-08-27 08:22:00,
2013-08-27 03:27:00,78.2,69.6,29.23,NNW,336,0.0,1.0,75,0.00,,---,0.00,VWS V12.08,2013-08-27 08:27:00,
2013-08-27 03:32:00,78.1,69.5,29.23,NW,319,0.0,1.0,75,0.00,,---,0.00,VWS V12.08,2013-08-27 08:32:00,
2013-08-27 03:37:00,78.0,69.4,29.23,NW,309,0.0,1.0,75,0.00,,---,0.00,VWS V12.08,2013-08-27 08:37:00,
2013-08-27 03:42:00,78.0,69.4,29.23,NNW,327,0.0,1.0,75,0.00,,---,0.00,VWS V12.08,2013-08-27 08:42:00,
2013-08-27 03:47:00,77.9,69.7,29.23,NNW,336,0.0,1.0,76,0.00,,---,0.00,VWS V12.08,2013-08-27 08:47:00,
2013-08-27 03:52:00,77.9,69.3,29.23,North,359,0.0,1.0,75,0.00,,---,0.00,VWS V12.08,2013-08-27 08:52:00,
2013-08-27 03:57:00,77.9,69.7,29.23,North,355,0.0,1.0,76,0.00,,---,0.00,VWS V12.08,2013-08-27 08:57:00,
2013-08-27 04:02:00,77.8,69.6,29.23,West,270,0.0,1.0,76,0.00,,---,0.00,VWS V12.08,2013-08-27 09:02:00,
2013-08-27 04:07:00,77.8,69.6,29.23,NW,307,0.0,2.0,76,0.00,,---,0.00,VWS V12.08,2013-08-27 09:07:00,
2013-08-27 04:12:00,77.7,69.5,29.23,North,359,0.0,2.0,76,0.00,,---,0.00,VWS V12.08,2013-08-27 09:12:00,
2013-08-27 04:17:00,77.6,69.4,29.23,WNW,303,0.0,2.0,76,0.00,,---,0.00,VWS V12.08,2013-08-27 09:17:00,
2013-08-27 04:22:00,77.6,69.4,29.22,NW,311,0.0,2.0,76,0.00,,---,0.00,VWS V12.08,2013-08-27 09:22:00,
2013-08-27 04:27:00,77.5,69.3,29.22,NNW,330,0.0,2.0,76,0.00,,---,0.00,VWS V12.08,2013-08-27 09:27:00,
2013-08-27 04:32:00,77.5,69.3,29.23,NW,312,0.0,1.0,76,0.00,,---,0.00,VWS V12.08,2013-08-27 09:32:00,
2013-08-27 04:37:00,77.5,69.3,29.22,North,351,0.0,1.0,76,0.00,,---,0.00,VWS V12.08,2013-08-27 09:37:00,
2013-08-27 04:42:00,77.4,69.2,29.22,North,358,0.0,2.0,76,0.00,,---,0.00,VWS V12.08,2013-08-27 09:42:00,
2013-08-27 04:47:00,77.4,69.2,29.22,North,359,0.0,2.0,76,0.00,,---,0.00,VWS V12.08,2013-08-27 09:47:00,
2013-08-27 04:52:00,77.4,69.2,29.22,North,0,0.0,2.0,76,0.00,,---,0.00,VWS V12.08,2013-08-27 09:52:00,
2013-08-27 04:57:00,77.4,69.2,29.22,North,0,0.0,2.0,76,0.00,,---,0.00,VWS V12.08,2013-08-27 09:57:00,
2013-08-27 05:03:00,77.3,69.2,29.22,West,279,0.0,1.0,76,0.00,,---,0.00,VWS V12.08,2013-08-27 10:03:00,
2013-08-27 05:08:00,77.2,69.1,29.22,North,351,0.0,1.0,76,0.00,,---,0.00,VWS V12.08,2013-08-27 10:08:00,
2013-08-27 05:13:00,77.2,69.1,29.22,WNW,300,0.0,1.0,76,0.00,,---,0.00,VWS V12.08,2013-08-27 10:13:00,
2013-08-27 05:19:00,77.1,69.0,29.22,North,357,0.0,1.0,76,0.00,,---,0.00,VWS V12.08,2013-08-27 10:19:00,
2013-08-27 05:24:00,77.1,69.0,29.23,NW,318,0.0,1.0,76,0.00,,---,0.00,VWS V12.08,2013-08-27 10:24:00,
2013-08-27 05:29:00,77.0,68.9,29.23,NNW,348,0.0,1.0,76,0.00,,---,0.00,VWS V12.08,2013-08-27 10:29:00,
2013-08-27 05:34:00,76.9,68.8,29.22,WNW,289,0.0,1.0,76,0.00,,---,0.00,VWS V12.08,2013-08-27 10:34:00,
2013-08-27 05:40:00,76.9,68.8,29.23,NNW,331,0.0,1.0,76,0.00,,---,0.00,VWS V12.08,2013-08-27 10:40:00,
2013-08-27 05:45:00,76.9,69.2,29.23,West,264,0.0,1.0,77,0.00,,---,0.00,VWS V12.08,2013-08-27 10:45:00,
2013-08-27 05:50:00,76.8,68.7,29.23,West,266,0.0,1.0,76,0.00,,---,0.00,VWS V12.08,2013-08-27 10:50:00,
2013-08-27 05:55:00,76.7,68.6,29.23,NNW,347,0.0,1.0,76,0.00,,---,0.00,VWS V12.08,2013-08-27 10:55:00,
2013-08-27 06:00:00,76.7,68.6,29.23,North,0,0.0,0.0,76,0.00,,---,0.00,VWS V12.08,2013-08-27 11:00:00,
2013-08-27 06:05:00,76.7,68.6,29.23,NW,324,0.0,1.0,76,0.00,,---,0.00,VWS V12.08,2013-08-27 11:05:00,
2013-08-27 06:10:00,76.7,68.6,29.23,North,0,0.0,1.0,76,0.00,,---,0.00,VWS V12.08,2013-08-27 11:10:00,
2013-08-27 06:15:00,76.7,68.6,29.23,North,0,0.0,1.0,76,0.00,,---,0.00,VWS V12.08,2013-08-27 11:15:00,
2013-08-27 06:20:00,76.6,68.5,29.23,North,350,0.0,1.0,76,0.00,,---,0.00,VWS V12.08,2013-08-27 11:20:00,
2013-08-27 06:25:00,76.6,68.5,29.23,North,0,0.0,2.0,76,0.00,,---,0.00,VWS V12.08,2013-08-27 11:25:00,
2013-08-27 06:30:00,76.6,68.5,29.23,WNW,285,0.0,1.0,76,0.00,,---,0.00,VWS V12.08,2013-08-27 11:30:00,
2013-08-27 06:35:00,76.6,68.5,29.23,WNW,286,0.0,2.0,76,0.00,,---,0.00,VWS V12.08,2013-08-27 11:35:00,
2013-08-27 06:41:00,76.6,68.5,29.24,North,359,0.0,2.0,76,0.00,,---,0.00,VWS V12.08,2013-08-27 11:41:00,
2013-08-27 06:46:00,76.5,68.4,29.24,NW,311,1.0,2.0,76,0.00,,---,0.00,VWS V12.08,2013-08-27 11:46:00,
2013-08-27 06:51:00,76.6,68.5,29.24,NW,323,0.0,2.0,76,0.00,,---,0.00,VWS V12.08,2013-08-27 11:51:00,
2013-08-27 06:56:00,76.6,68.5,29.24,NNW,331,0.0,2.0,76,0.00,,---,0.00,VWS V12.08,2013-08-27 11:56:00,
2013-08-27 07:01:00,76.6,68.5,29.24,North,0,0.0,0.0,76,0.00,,---,0.00,VWS V12.08,2013-08-27 12:01:00,
2013-08-27 07:06:00,76.7,68.6,29.24,WNW,286,0.0,1.0,76,0.00,,---,0.00,VWS V12.08,2013-08-27 12:06:00,
2013-08-27 07:11:00,76.8,68.7,29.25,NW,308,0.0,2.0,76,0.00,,---,0.00,VWS V12.08,2013-08-27 12:11:00,
2013-08-27 07:16:00,76.9,68.4,29.24,NW,317,0.0,2.0,75,0.00,,---,0.00,VWS V12.08,2013-08-27 12:16:00,
2013-08-27 07:21:00,76.9,68.4,29.24,WNW,288,1.0,2.0,75,0.00,,---,0.00,VWS V12.08,2013-08-27 12:21:00,
2013-08-27 07:26:00,77.0,68.5,29.25,North,354,0.0,2.0,75,0.00,,---,0.00,VWS V12.08,2013-08-27 12:26:00,
2013-08-27 07:32:00,77.0,68.5,29.24,North,0,0.0,1.0,75,0.00,,---,0.00,VWS V12.08,2013-08-27 12:32:00,
2013-08-27 07:37:00,77.1,68.6,29.24,North,0,0.0,1.0,75,0.00,,---,0.00,VWS V12.08,2013-08-27 12:37:00,
2013-08-27 07:43:00,77.1,68.6,29.24,NNW,333,0.0,2.0,75,0.00,,---,0.00,VWS V12.08,2013-08-27 12:43:00,
2013-08-27 07:48:00,77.2,68.7,29.24,North,0,0.0,2.0,75,0.00,,---,0.00,VWS V12.08,2013-08-27 12:48:00,
2013-08-27 07:53:00,77.2,68.7,29.24,WNW,292,0.0,2.0,75,0.00,,---,0.00,VWS V12.08,2013-08-27 12:53:00,
2013-08-27 07:58:00,77.3,68.8,29.24,North,0,0.0,2.0,75,0.00,,---,0.00,VWS V12.08,2013-08-27 12:58:00,
2013-08-27 08:03:00,77.3,68.8,29.24,NNW,344,1.0,1.0,75,0.00,,---,0.00,VWS V12.08,2013-08-27 13:03:00,
2013-08-27 08:08:00,77.4,68.9,29.24,NNW,342,0.0,1.0,75,0.00,,---,0.00,VWS V12.08,2013-08-27 13:08:00,
2013-08-27 08:13:00,77.5,68.6,29.24,North,354,0.0,1.0,74,0.00,,---,0.00,VWS V12.08,2013-08-27 13:13:00,
2013-08-27 08:18:00,77.7,68.8,29.24,North,358,0.0,2.0,74,0.00,,---,0.00,VWS V12.08,2013-08-27 13:18:00,
2013-08-27 08:23:00,77.9,68.9,29.24,NNW,338,0.0,2.0,74,0.00,,---,0.00,VWS V12.08,2013-08-27 13:23:00,
2013-08-27 08:28:00,78.1,68.8,29.24,WNW,292,0.0,2.0,73,0.00,,---,0.00,VWS V12.08,2013-08-27 13:28:00,
2013-08-27 08:33:00,78.3,68.9,29.24,North,358,0.0,1.0,73,0.00,,---,0.00,VWS V12.08,2013-08-27 13:33:00,
2013-08-27 08:38:00,78.6,69.2,29.24,North,354,0.0,1.0,73,0.00,,---,0.00,VWS V12.08,2013-08-27 13:38:00,
2013-08-27 08:43:00,78.8,69.0,29.24,WNW,282,0.0,2.0,72,0.00,,---,0.00,VWS V12.08,2013-08-27 13:43:00,
2013-08-27 08:48:00,79.1,69.3,29.24,North,357,1.0,2.0,72,0.00,,---,0.00,VWS V12.08,2013-08-27 13:48:00,
2013-08-27 08:53:00,79.4,69.2,29.23,NNW,338,1.0,2.0,71,0.00,,---,0.00,VWS V12.08,2013-08-27 13:53:00,
2013-08-27 08:58:00,79.7,69.5,29.24,WNW,300,0.0,2.0,71,0.00,,---,0.00,VWS V12.08,2013-08-27 13:58:00,
2013-08-27 09:03:00,80.1,69.4,29.24,NW,310,0.0,2.0,70,0.00,,---,0.00,VWS V12.08,2013-08-27 14:03:00,
2013-08-27 09:08:00,80.4,69.3,29.24,NNW,338,0.0,2.0,69,0.00,,---,0.00,VWS V12.08,2013-08-27 14:08:00,
2013-08-27 09:13:00,80.8,69.3,29.23,WNW,283,0.0,2.0,68,0.00,,---,0.00,VWS V12.08,2013-08-27 14:13:00,
2013-08-27 09:18:00,81.0,69.4,29.23,North,0,0.0,2.0,68,0.00,,---,0.00,VWS V12.08,2013-08-27 14:18:00,
2013-08-27 09:23:00,81.3,69.3,29.23,NNW,344,0.0,2.0,67,0.00,,---,0.00,VWS V12.08,2013-08-27 14:23:00,
2013-08-27 09:28:00,81.6,69.2,29.23,NNW,348,0.0,2.0,66,0.00,,---,0.00,VWS V12.08,2013-08-27 14:28:00,
2013-08-27 09:35:00,82.1,69.2,29.23,NW,304,0.0,1.0,65,0.00,,---,0.00,VWS V12.08,2013-08-27 14:35:00,
2013-08-27 09:41:00,82.4,69.5,29.23,NNW,331,0.0,2.0,65,0.00,,---,0.00,VWS V12.08,2013-08-27 14:41:00,
2013-08-27 09:46:00,82.5,69.6,29.23,NW,313,0.0,2.0,65,0.00,,---,0.00,VWS V12.08,2013-08-27 14:46:00,
2013-08-27 09:51:00,82.9,69.9,29.23,NNW,329,0.0,2.0,65,0.00,,---,0.00,VWS V12.08,2013-08-27 14:51:00,
2013-08-27 09:56:00,83.4,69.9,29.23,North,351,0.0,2.0,64,0.00,,---,0.00,VWS V12.08,2013-08-27 14:56:00,
2013-08-27 10:01:00,83.6,70.1,29.23,NNW,344,0.0,2.0,64,0.00,,---,0.00,VWS V12.08,2013-08-27 15:01:00,
2013-08-27 10:06:00,83.9,70.0,29.23,North,352,0.0,2.0,63,0.00,,---,0.00,VWS V12.08,2013-08-27 15:06:00,
2013-08-27 10:11:00,84.2,70.2,29.23,NNW,328,0.0,2.0,63,0.00,,---,0.00,VWS V12.08,2013-08-27 15:11:00,
2013-08-27 10:16:00,84.8,70.3,29.23,NNW,345,0.0,2.0,62,0.00,,---,0.00,VWS V12.08,2013-08-27 15:16:00,
2013-08-27 10:21:00,85.0,70.1,29.23,NW,317,1.0,2.0,61,0.00,,---,0.00,VWS V12.08,2013-08-27 15:21:00,
2013-08-27 10:26:00,85.2,69.3,29.24,NW,321,0.0,3.0,59,0.00,,---,0.00,VWS V12.08,2013-08-27 15:26:00,
2013-08-27 10:31:00,85.1,69.2,29.23,NW,324,1.0,2.0,59,0.00,,---,0.00,VWS V12.08,2013-08-27 15:31:00,
2013-08-27 10:36:00,85.3,69.4,29.23,NW,314,0.0,3.0,59,0.00,,---,0.00,VWS V12.08,2013-08-27 15:36:00,
2013-08-27 10:41:00,85.6,69.6,29.23,NW,317,1.0,3.0,59,0.00,,---,0.00,VWS V12.08,2013-08-27 15:41:00,
2013-08-27 10:47:00,85.6,69.1,29.23,NNW,342,1.0,4.0,58,0.00,,---,0.00,VWS V12.08,2013-08-27 15:47:00,
2013-08-27 10:52:00,85.9,69.4,29.23,NW,317,0.0,4.0,58,0.00,,---,0.00,VWS V12.08,2013-08-27 15:52:00,
2013-08-27 10:57:00,86.5,69.5,29.23,NW,319,0.0,4.0,57,0.00,,---,0.00,VWS V12.08,2013-08-27 15:57:00,
2013-08-27 11:02:00,87.1,70.0,29.23,NW,314,0.0,1.0,57,0.00,,---,0.00,VWS V12.08,2013-08-27 16:02:00,
2013-08-27 11:07:00,87.1,69.5,29.23,West,281,1.0,2.0,56,0.00,,---,0.00,VWS V12.08,2013-08-27 16:07:00,
2013-08-27 11:12:00,87.2,69.6,29.23,NW,322,0.0,2.0,56,0.00,,---,0.00,VWS V12.08,2013-08-27 16:12:00,
2013-08-27 11:17:00,87.5,69.9,29.22,WNW,299,0.0,2.0,56,0.00,,---,0.00,VWS V12.08,2013-08-27 16:17:00,
2013-08-27 11:22:00,88.1,70.4,29.23,West,263,0.0,2.0,56,0.00,,---,0.00,VWS V12.08,2013-08-27 16:22:00,
2013-08-27 11:27:00,88.1,69.4,29.23,NNW,332,0.0,2.0,54,0.00,,---,0.00,VWS V12.08,2013-08-27 16:27:00,
2013-08-27 11:32:00,87.9,69.2,29.22,West,272,0.0,3.0,54,0.00,,---,0.00,VWS V12.08,2013-08-27 16:32:00,
2013-08-27 11:37:00,88.0,69.8,29.22,North,356,0.0,3.0,55,0.00,,---,0.00,VWS V12.08,2013-08-27 16:37:00,
2013-08-27 11:42:00,88.3,69.6,29.22,NNW,339,2.0,3.0,54,0.00,,---,0.00,VWS V12.08,2013-08-27 16:42:00,
2013-08-27 11:47:00,88.6,69.8,29.22,NW,324,1.0,3.0,54,0.00,,---,0.00,VWS V12.08,2013-08-27 16:47:00,
2013-08-27 11:53:00,88.9,69.6,29.22,West,281,1.0,3.0,53,0.00,,---,0.00,VWS V12.08,2013-08-27 16:53:00,
2013-08-27 11:58:00,88.9,69.6,29.21,NNW,348,1.0,3.0,53,0.00,,---,0.00,VWS V12.08,2013-08-27 16:58:00,
2013-08-27 12:03:00,89.2,69.8,29.21,NW,325,0.0,1.0,53,0.00,,---,0.00,VWS V12.08,2013-08-27 17:03:00,
2013-08-27 12:09:00,89.4,70.0,29.20,WNW,301,0.0,2.0,53,0.00,,---,0.00,VWS V12.08,2013-08-27 17:09:00,
2013-08-27 12:15:00,90.0,69.5,29.20,NNW,344,1.0,3.0,51,0.00,,---,0.00,VWS V12.08,2013-08-27 17:15:00,
2013-08-27 12:20:00,90.3,69.2,29.20,NNW,333,0.0,3.0,50,0.00,,---,0.00,VWS V12.08,2013-08-27 17:20:00,
2013-08-27 12:25:00,90.6,70.0,29.20,NNW,346,0.0,3.0,51,0.00,,---,0.00,VWS V12.08,2013-08-27 17:25:00,
2013-08-27 12:31:00,90.8,70.2,29.20,NW,317,0.0,2.0,51,0.00,,---,0.00,VWS V12.08,2013-08-27 17:31:00,
2013-08-27 12:36:00,90.9,69.1,29.20,NNW,345,0.0,2.0,49,0.00,,---,0.00,VWS V12.08,2013-08-27 17:36:00,
2013-08-27 12:41:00,90.9,69.1,29.19,West,275,0.0,4.0,49,0.00,,---,0.00,VWS V12.08,2013-08-27 17:41:00,
2013-08-27 12:46:00,91.4,69.6,29.19,WNW,292,0.0,4.0,49,0.00,,---,0.00,VWS V12.08,2013-08-27 17:46:00,
2013-08-27 12:51:00,91.6,69.2,29.19,WNW,301,0.0,4.0,48,0.00,,---,0.00,VWS V12.08,2013-08-27 17:51:00,
2013-08-27 12:56:00,91.6,68.5,29.19,NW,312,0.0,4.0,47,0.00,,---,0.00,VWS V12.08,2013-08-27 17:56:00,
2013-08-27 13:01:00,91.4,68.3,29.18,NNW,332,0.0,3.0,47,0.00,,---,0.00,VWS V12.08,2013-08-27 18:01:00,
2013-08-27 13:06:00,91.8,68.7,29.18,NW,307,0.0,3.0,47,0.00,,---,0.00,VWS V12.08,2013-08-27 18:06:00,
2013-08-27 13:11:00,92.3,69.2,29.18,WNW,300,0.0,3.0,47,0.00,,---,0.00,VWS V12.08,2013-08-27 18:11:00,
2013-08-27 13:16:00,92.6,68.2,29.18,NW,310,0.0,3.0,45,0.00,,---,0.00,VWS V12.08,2013-08-27 18:16:00,
2013-08-27 13:21:00,92.4,68.6,29.18,WSW,247,0.0,3.0,46,0.00,,---,0.00,VWS V12.08,2013-08-27 18:21:00,
2013-08-27 13:26:00,92.4,68.0,29.18,NW,322,1.0,3.0,45,0.00,,---,0.00,VWS V12.08,2013-08-27 18:26:00,
2013-08-27 13:31:00,92.5,68.1,29.18,WNW,301,0.0,3.0,45,0.00,,---,0.00,VWS V12.08,2013-08-27 18:31:00,
2013-08-27 13:36:00,92.8,67.7,29.17,NW,308,3.0,3.0,44,0.00,,---,0.00,VWS V12.08,2013-08-27 18:36:00,
2013-08-27 13:41:00,92.7,67.6,29.17,NNW,337,0.0,6.0,44,0.00,,---,0.00,VWS V12.08,2013-08-27 18:41:00,
2013-08-27 13:46:00,92.9,67.8,29.17,NNW,333,0.0,6.0,44,0.00,,---,0.00,VWS V12.08,2013-08-27 18:46:00,
2013-08-27 13:51:00,93.4,68.2,29.17,NNW,329,0.0,6.0,44,0.00,,---,0.00,VWS V12.08,2013-08-27 18:51:00,
2013-08-27 13:56:00,93.5,67.7,29.17,NW,322,1.0,6.0,43,0.00,,---,0.00,VWS V12.08,2013-08-27 18:56:00,
2013-08-27 14:01:00,93.7,67.8,29.17,NW,325,0.0,4.0,43,0.00,,---,0.00,VWS V12.08,2013-08-27 19:01:00,
2013-08-27 14:06:00,93.7,67.8,29.17,NW,317,0.0,4.0,43,0.00,,---,0.00,VWS V12.08,2013-08-27 19:06:00,
2013-08-27 14:11:00,94.1,68.2,29.17,NW,324,0.0,4.0,43,0.00,,---,0.00,VWS V12.08,2013-08-27 19:11:00,
2013-08-27 14:16:00,94.1,67.5,29.17,NNW,333,0.0,5.0,42,0.00,,---,0.00,VWS V12.08,2013-08-27 19:16:00,
2013-08-27 14:21:00,94.0,67.4,29.17,NW,323,0.0,5.0,42,0.00,,---,0.00,VWS V12.08,2013-08-27 19:21:00,
2013-08-27 14:26:00,94.2,67.6,29.17,NNW,336,0.0,5.0,42,0.00,,---,0.00,VWS V12.08,2013-08-27 19:26:00,
2013-08-27 14:31:00,94.2,67.6,29.17,West,266,0.0,1.0,42,0.00,,---,0.00,VWS V12.08,2013-08-27 19:31:00,
2013-08-27 14:36:00,94.4,67.8,29.16,NW,313,0.0,4.0,42,0.00,,---,0.00,VWS V12.08,2013-08-27 19:36:00,
2013-08-27 14:42:00,94.5,67.2,29.16,WNW,297,0.0,4.0,41,0.00,,---,0.00,VWS V12.08,2013-08-27 19:42:00,
2013-08-27 14:47:00,94.9,67.5,29.16,NW,304,0.0,4.0,41,0.00,,---,0.00,VWS V12.08,2013-08-27 19:47:00,
2013-08-27 14:52:00,95.0,66.9,29.16,WNW,290,0.0,6.0,40,0.00,,---,0.00,VWS V12.08,2013-08-27 19:52:00,
2013-08-27 14:57:00,94.9,67.5,29.16,NNW,335,0.0,6.0,41,0.00,,---,0.00,VWS V12.08,2013-08-27 19:57:00,
2013-08-27 15:02:00,95.3,66.4,29.16,NW,305,0.0,2.0,39,0.00,,---,0.00,VWS V12.08,2013-08-27 20:02:00,
2013-08-27 15:07:00,95.6,67.4,29.15,NNW,333,0.0,2.0,40,0.00,,---,0.00,VWS V12.08,2013-08-27 20:07:00,
2013-08-27 15:12:00,95.7,67.5,29.16,NW,310,0.0,2.0,40,0.00,,---,0.00,VWS V12.08,2013-08-27 20:12:00,
2013-08-27 15:17:00,95.9,67.7,29.16,WNW,289,0.0,2.0,40,0.00,,---,0.00,VWS V12.08,2013-08-27 20:17:00,
2013-08-27 15:22:00,96.1,67.2,29.15,WNW,293,0.0,2.0,39,0.00,,---,0.00,VWS V12.08,2013-08-27 20:22:00,
2013-08-27 15:27:00,95.8,67.6,29.15,NW,318,0.0,3.0,40,0.00,,---,0.00,VWS V12.08,2013-08-27 20:27:00,
2013-08-27 15:33:00,96.1,67.2,29.15,NNW,336,0.0,1.0,39,0.00,,---,0.00,VWS V12.08,2013-08-27 20:33:00,
2013-08-27 15:38:00,96.2,67.2,29.15,NW,315,0.0,4.0,39,0.00,,---,0.00,VWS V12.08,2013-08-27 20:38:00,
2013-08-27 15:43:00,96.0,67.1,29.14,NNW,327,0.0,4.0,39,0.00,,---,0.00,VWS V12.08,2013-08-27 20:43:00,
2013-08-27 15:48:00,96.2,67.2,29.15,WNW,291,0.0,4.0,39,0.00,,---,0.00,VWS V12.08,2013-08-27 20:48:00,
2013-08-27 15:53:00,96.5,67.5,29.15,NW,310,0.0,8.0,39,0.00,,---,0.00,VWS V12.08,2013-08-27 20:53:00,
2013-08-27 15:58:00,96.3,67.3,29.15,NW,306,0.0,8.0,39,0.00,,---,0.00,VWS V12.08,2013-08-27 20:58:00,
2013-08-27 16:03:00,96.1,67.2,29.15,NW,304,0.0,2.0,39,0.00,,---,0.00,VWS V12.08,2013-08-27 21:03:00,
2013-08-27 16:08:00,96.3,67.3,29.15,NW,316,1.0,3.0,39,0.00,,---,0.00,VWS V12.08,2013-08-27 21:08:00,
2013-08-27 16:13:00,96.4,66.7,29.15,NW,309,1.0,3.0,38,0.00,,---,0.00,VWS V12.08,2013-08-27 21:13:00,
2013-08-27 16:18:00,96.5,66.8,29.15,NW,326,1.0,4.0,38,0.00,,---,0.00,VWS V12.08,2013-08-27 21:18:00,
2013-08-27 16:23:00,96.6,67.6,29.14,WNW,300,0.0,4.0,39,0.00,,---,0.00,VWS V12.08,2013-08-27 21:23:00,
2013-08-27 16:28:00,96.5,66.8,29.15,NW,320,0.0,4.0,38,0.00,,---,0.00,VWS V12.08,2013-08-27 21:28:00,
2013-08-27 16:33:00,96.5,66.8,29.15,NW,311,0.0,3.0,38,0.00,,---,0.00,VWS V12.08,2013-08-27 21:33:00,
2013-08-27 16:38:00,96.3,66.6,29.15,NW,304,0.0,3.0,38,0.00,,---,0.00,VWS V12.08,2013-08-27 21:38:00,
2013-08-27 16:43:00,96.3,66.6,29.14,WNW,283,0.0,3.0,38,0.00,,---,0.00,VWS V12.08,2013-08-27 21:43:00,
2013-08-27 16:48:00,96.3,66.6,29.14,NW,306,0.0,3.0,38,0.00,,---,0.00,VWS V12.08,2013-08-27 21:48:00,
2013-08-27 16:53:00,96.3,66.6,29.14,NW,312,0.0,3.0,38,0.00,,---,0.00,VWS V12.08,2013-08-27 21:53:00,
2013-08-27 16:58:00,96.2,66.5,29.14,NW,307,0.0,3.0,38,0.00,,---,0.00,VWS V12.08,2013-08-27 21:58:00,
2013-08-27 17:03:00,95.9,67.0,29.14,West,270,0.0,1.0,39,0.00,,---,0.00,VWS V12.08,2013-08-27 22:03:00,
2013-08-27 17:09:00,96.1,66.4,29.14,NNW,334,0.0,12.0,38,0.00,,---,0.00,VWS V12.08,2013-08-27 22:09:00,
2013-08-27 17:14:00,96.2,66.5,29.14,WNW,284,0.0,12.0,38,0.00,,---,0.00,VWS V12.08,2013-08-27 22:14:00,
2013-08-27 17:19:00,96.1,66.4,29.14,NW,319,0.0,12.0,38,0.00,,---,0.00,VWS V12.08,2013-08-27 22:19:00,
2013-08-27 17:24:00,96.1,66.4,29.14,NW,319,0.0,12.0,38,0.00,,---,0.00,VWS V12.08,2013-08-27 22:24:00,
2013-08-27 17:30:00,96.2,66.5,29.14,NW,316,2.0,12.0,38,0.00,,---,0.00,VWS V12.08,2013-08-27 22:30:00,
2013-08-27 17:35:00,95.8,65.4,29.14,WNW,285,0.0,10.0,37,0.00,,---,0.00,VWS V12.08,2013-08-27 22:35:00,
2013-08-27 17:40:00,95.4,65.8,29.14,WNW,292,0.0,10.0,38,0.00,,---,0.00,VWS V12.08,2013-08-27 22:40:00,
2013-08-27 17:45:00,95.5,65.9,29.14,WSW,251,0.0,10.0,38,0.00,,---,0.00,VWS V12.08,2013-08-27 22:45:00,
2013-08-27 17:50:00,95.3,65.7,29.14,WNW,297,0.0,10.0,38,0.00,,---,0.00,VWS V12.08,2013-08-27 22:50:00,
2013-08-27 17:55:00,95.4,66.5,29.14,WSW,239,0.0,10.0,39,0.00,,---,0.00,VWS V12.08,2013-08-27 22:55:00,
2013-08-27 18:00:00,95.1,66.3,29.14,WNW,289,1.0,1.0,39,0.00,,---,0.00,VWS V12.08,2013-08-27 23:00:00,
2013-08-27 18:05:00,95.1,66.3,29.14,WSW,245,0.0,2.0,39,0.00,,---,0.00,VWS V12.08,2013-08-27 23:05:00,
2013-08-27 18:10:00,94.7,66.6,29.14,WSW,241,0.0,3.0,40,0.00,,---,0.00,VWS V12.08,2013-08-27 23:10:00,
2013-08-27 18:15:00,94.5,66.5,29.14,South,190,0.0,3.0,40,0.00,,---,0.00,VWS V12.08,2013-08-27 23:15:00,
2013-08-27 18:20:00,94.4,67.1,29.14,WSW,243,0.0,3.0,41,0.00,,---,0.00,VWS V12.08,2013-08-27 23:20:00,
2013-08-27 18:25:00,94.3,67.0,29.14,NW,318,1.0,3.0,41,0.00,,---,0.00,VWS V12.08,2013-08-27 23:25:00,
2013-08-27 18:30:00,94.2,66.9,29.14,West,275,0.0,0.0,41,0.00,,---,0.00,VWS V12.08,2013-08-27 23:30:00,
2013-08-27 18:35:00,94.0,66.7,29.14,West,262,1.0,1.0,41,0.00,,---,0.00,VWS V12.08,2013-08-27 23:35:00,
2013-08-27 18:40:00,93.8,67.2,29.14,West,272,1.0,2.0,42,0.00,,---,0.00,VWS V12.08,2013-08-27 23:40:00,
2013-08-27 18:45:00,93.4,66.9,29.14,NW,311,0.0,2.0,42,0.00,,---,0.00,VWS V12.08,2013-08-27 23:45:00,
2013-08-27 18:50:00,93.2,66.7,29.14,SSW,192,0.0,2.0,42,0.00,,---,0.00,VWS V12.08,2013-08-27 23:50:00,
2013-08-27 18:55:00,93.0,67.2,29.14,WSW,248,0.0,2.0,43,0.00,,---,0.00,VWS V12.08,2013-08-27 23:55:00,
2013-08-27 19:00:00,92.7,66.9,29.14,WNW,286,0.0,0.0,43,0.00,,---,0.00,VWS V12.08,2013-08-28 00:00:00,
2013-08-27 19:05:00,92.5,66.8,29.14,NW,323,1.0,2.0,43,0.00,,---,0.00,VWS V12.08,2013-08-28 00:05:00,
2013-08-27 19:11:00,92.2,66.5,29.14,West,276,0.0,2.0,43,0.00,,---,0.00,VWS V12.08,2013-08-28 00:11:00,
2013-08-27 19:16:00,91.9,66.9,29.15,NW,313,1.0,2.0,44,0.00,,---,0.00,VWS V12.08,2013-08-28 00:16:00,
2013-08-27 19:22:00,91.6,66.6,29.15,NW,316,0.0,2.0,44,0.00,,---,0.00,VWS V12.08,2013-08-28 00:22:00,
2013-08-27 19:27:00,91.5,66.5,29.15,WNW,288,0.0,2.0,44,0.00,,---,0.00,VWS V12.08,2013-08-28 00:27:00,
2013-08-27 19:32:00,91.3,66.3,29.15,West,268,0.0,1.0,44,0.00,,---,0.00,VWS V12.08,2013-08-28 00:32:00,
2013-08-27 19:37:00,90.9,66.6,29.15,NW,304,0.0,1.0,45,0.00,,---,0.00,VWS V12.08,2013-08-28 00:37:00,
2013-08-27 19:42:00,90.6,66.4,29.15,NW,319,0.0,2.0,45,0.00,,---,0.00,VWS V12.08,2013-08-28 00:42:00,
2013-08-27 19:47:00,90.3,66.1,29.15,NW,315,0.0,2.0,45,0.00,,---,0.00,VWS V12.08,2013-08-28 00:47:00,
2013-08-27 19:55:00,89.7,66.8,29.15,NNW,331,0.0,2.0,47,0.00,,---,0.00,VWS V12.08,2013-08-28 00:55:00,
2013-08-27 20:00:00,89.4,66.5,29.15,WNW,287,0.0,2.0,47,0.00,,---,0.00,VWS V12.08,2013-08-28 01:00:00,
2013-08-27 20:06:00,89.1,66.9,29.16,NW,304,0.0,1.0,48,0.00,,---,0.00,VWS V12.08,2013-08-28 01:06:00,
2013-08-27 20:11:00,88.8,66.6,29.16,WNW,297,0.0,1.0,48,0.00,,---,0.00,VWS V12.08,2013-08-28 01:11:00,
2013-08-27 20:16:00,88.6,67.0,29.16,NNW,337,0.0,1.0,49,0.00,,---,0.00,VWS V12.08,2013-08-28 01:16:00,
2013-08-27 20:21:00,88.3,66.7,29.16,West,280,0.0,1.0,49,0.00,,---,0.00,VWS V12.08,2013-08-28 01:21:00,
2013-08-27 20:26:00,88.0,66.5,29.16,WSW,253,0.0,1.0,49,0.00,,---,0.00,VWS V12.08,2013-08-28 01:26:00,
2013-08-27 20:31:00,87.7,66.8,29.16,NW,319,0.0,0.0,50,0.00,,---,0.00,VWS V12.08,2013-08-28 01:31:00,
2013-08-27 20:36:00,87.5,66.6,29.16,West,281,0.0,1.0,50,0.00,,---,0.00,VWS V12.08,2013-08-28 01:36:00,
2013-08-27 20:41:00,87.2,66.9,29.16,WNW,298,0.0,1.0,51,0.00,,---,0.00,VWS V12.08,2013-08-28 01:41:00,
2013-08-27 20:46:00,87.1,66.8,29.17,West,265,0.0,1.0,51,0.00,,---,0.00,VWS V12.08,2013-08-28 01:46:00,
2013-08-27 20:51:00,86.9,66.6,29.17,West,274,0.0,1.0,51,0.00,,---,0.00,VWS V12.08,2013-08-28 01:51:00,
2013-08-27 20:56:00,86.7,66.4,29.17,West,272,0.0,1.0,51,0.00,,---,0.00,VWS V12.08,2013-08-28 01:56:00,
2013-08-27 21:01:00,86.5,66.8,29.17,WNW,303,0.0,0.0,52,0.00,,---,0.00,VWS V12.08,2013-08-28 02:01:00,
2013-08-27 21:07:00,86.1,66.4,29.18,NNW,348,0.0,0.0,52,0.00,,---,0.00,VWS V12.08,2013-08-28 02:07:00,
2013-08-27 21:12:00,85.8,66.7,29.18,West,271,0.0,1.0,53,0.00,,---,0.00,VWS V12.08,2013-08-28 02:12:00,
2013-08-27 21:17:00,85.4,66.9,29.18,WNW,289,0.0,1.0,54,0.00,,---,0.00,VWS V12.08,2013-08-28 02:17:00,
2013-08-27 21:22:00,85.1,66.6,29.18,NNW,331,0.0,1.0,54,0.00,,---,0.00,VWS V12.08,2013-08-28 02:22:00,
2013-08-27 21:27:00,84.9,66.4,29.18,NNW,343,0.0,1.0,54,0.00,,---,0.00,VWS V12.08,2013-08-28 02:27:00,
2013-08-27 21:32:00,84.7,66.8,29.18,WNW,286,0.0,1.0,55,0.00,,---,0.00,VWS V12.08,2013-08-28 02:32:00,
2013-08-27 21:37:00,84.6,66.7,29.18,North,357,0.0,1.0,55,0.00,,---,0.00,VWS V12.08,2013-08-28 02:37:00,
2013-08-27 21:45:00,84.3,66.4,29.19,WNW,291,0.0,1.0,55,0.00,,---,0.00,VWS V12.08,2013-08-28 02:45:00,
2013-08-27 21:50:00,84.2,66.8,29.19,West,266,0.0,1.0,56,0.00,,---,0.00,VWS V12.08,2013-08-28 02:50:00,
2013-08-27 21:56:00,84.1,66.7,29.18,WNW,293,0.0,1.0,56,0.00,,---,0.00,VWS V12.08,2013-08-28 02:56:00,
2013-08-27 22:01:00,83.9,66.5,29.18,West,270,0.0,0.0,56,0.00,,---,0.00,VWS V12.08,2013-08-28 03:01:00,
2013-08-27 22:06:00,83.8,67.0,29.18,NNW,328,0.0,0.0,57,0.00,,---,0.00,VWS V12.08,2013-08-28 03:06:00,
2013-08-27 22:11:00,83.5,67.2,29.18,West,265,0.0,1.0,58,0.00,,---,0.00,VWS V12.08,2013-08-28 03:11:00,
2013-08-27 22:16:00,83.3,66.5,29.18,NNW,339,0.0,1.0,57,0.00,,---,0.00,VWS V12.08,2013-08-28 03:16:00,
2013-08-27 22:21:00,83.0,66.7,29.19,WNW,296,0.0,1.0,58,0.00,,---,0.00,VWS V12.08,2013-08-28 03:21:00,
2013-08-27 22:27:00,82.7,66.4,29.18,NW,314,0.0,1.0,58,0.00,,---,0.00,VWS V12.08,2013-08-28 03:27:00,
2013-08-27 22:32:00,82.5,66.7,29.18,WNW,295,0.0,0.0,59,0.00,,---,0.00,VWS V12.08,2013-08-28 03:32:00,
2013-08-27 22:37:00,82.4,67.1,29.18,NNW,344,0.0,0.0,60,0.00,,---,0.00,VWS V12.08,2013-08-28 03:37:00,
2013-08-27 22:43:00,82.2,66.9,29.18,North,353,0.0,1.0,60,0.00,,---,0.00,VWS V12.08,2013-08-28 03:43:00,
2013-08-27 22:48:00,82.0,66.8,29.19,WNW,303,0.0,1.0,60,0.00,,---,0.00,VWS V12.08,2013-08-28 03:48:00,
2013-08-27 22:54:00,81.9,66.7,29.19,SW,223,0.0,1.0,60,0.00,,---,0.00,VWS V12.08,2013-08-28 03:54:00,
2013-08-27 22:59:00,81.7,66.9,29.19,NNW,331,0.0,1.0,61,0.00,,---,0.00,VWS V12.08,2013-08-28 03:59:00,
2013-08-27 23:01:00,81.7,66.9,29.19,NW,326,0.0,1.0,61,0.00,,---,0.00,VWS V12.08,2013-08-28 04:01:00,
2013-08-27 23:04:00,81.6,66.9,29.19,NW,305,0.0,1.0,61,0.00,,---,0.00,VWS V12.08,2013-08-28 04:04:00,
2013-08-27 23:05:00,81.5,66.8,29.19,WSW,257,0.0,1.0,61,0.00,,---,0.00,VWS V12.08,2013-08-28 04:05:00,
2013-08-27 23:06:00,81.5,66.8,29.19,WSW,254,0.0,1.0,61,0.00,,---,0.00,VWS V12.08,2013-08-28 04:06:00,
2013-08-27 23:11:00,81.4,66.7,29.19,WSW,244,0.0,1.0,61,0.00,,---,0.00,VWS V12.08,2013-08-28 04:11:00,
2013-08-27 23:15:00,81.3,66.6,29.19,NW,320,0.0,1.0,61,0.00,,---,0.00,VWS V12.08,2013-08-28 04:15:00,
2013-08-27 23:20:00,81.2,66.5,29.19,NW,313,0.0,1.0,61,0.00,,---,0.00,VWS V12.08,2013-08-28 04:20:00,
2013-08-27 23:25:00,81.0,66.3,29.19,WSW,250,0.0,1.0,61,0.00,,---,0.00,VWS V12.08,2013-08-28 04:25:00,
2013-08-27 23:30:00,80.9,66.7,29.18,NW,305,0.0,0.0,62,0.00,,---,0.00,VWS V12.08,2013-08-28 04:30:00,
2013-08-27 23:35:00,80.8,66.6,29.19,NNW,337,0.0,1.0,62,0.00,,---,0.00,VWS V12.08,2013-08-28 04:35:00,
2013-08-27 23:40:00,80.7,66.5,29.18,NW,310,0.0,1.0,62,0.00,,---,0.00,VWS V12.08,2013-08-28 04:40:00,
2013-08-27 23:45:00,80.6,66.4,29.19,NW,317,0.0,1.0,62,0.00,,---,0.00,VWS V12.08,2013-08-28 04:45:00,
2013-08-27 23:50:00,80.4,66.7,29.19,NW,307,0.0,1.0,63,0.00,,---,0.00,VWS V12.08,2013-08-28 04:50:00,
2013-08-27 23:55:00,80.2,66.5,29.19,West,278,0.0,1.0,63,0.00,,---,0.00,VWS V12.08,2013-08-28 04:55:00,